Weather History for Ft Lauderdale, FL

Change the Weather History Date:

Monday, April 1, 2013

  Actual Average Record
Temperature  
Mean Temperature 79 °F 75 °F  
Max Temperature 87 °F 81 °F 90 °F (1985)
Min Temperature 71 °F 68 °F 44 °F (1839)
Degree Days  
Heating Degree Days 0 0  
Month to date heating degree days 0 0  
Since 1 July heating degree days 85 111  
Cooling Degree Days 14 10  
Month to date cooling degree days 14 10  
Year to date cooling degree days 603 620  
Growing Degree Days 28 (Base 50)    
Moisture  
Dew Point 67 °F    
Average Humidity 65    
Maximum Humidity 87    
Minimum Humidity 42    
Precipitation  
Precipitation 0.18 in 0.14 in 2.74 in (1962)
Month to date precipitation 0.18 0.14  
Year to date precipitation 3.39 10.09  
Snow  
Snow 0.00 in - - ()
Month to date snowfall 0.0  
Since 1 July snowfall 0.0  
Snow Depth 0.00 in    
Sea Level Pressure  
Sea Level Pressure 30.02 in    
Wind  
Wind Speed 8 mph (South)    
Max Wind Speed 16 mph    
Max Gust Speed 24 mph    
Visibility 10 miles    
Events Rain    
T = Trace of Precipitation, MM = Missing Value Source: NWS Daily Summary

Daily Weather History Graph

Daily Weather History Graph

Search for Another Location

Airport:

Trip Planner

Search our weather history database for the weather conditions in past years. The results will help you decide how hot, cold, wet, or windy it might be!

Date:

Astronomy

Apr. 01, 2013 Rise Set
Actual Time 7:11 AM EDT 7:37 PM EDT
Civil Twilight 6:48 AM EDT 8:00 PM EDT
Nautical Twilight 6:21 AM EDT 8:27 PM EDT
Astronomical Twilight 5:53 AM EDT 8:55 PM EDT
Moon 12:19 AM EDT (4/1) 11:21 AM EDT (4/1)
Length of Visible Light 13h 12m
Length of Day
12h 26m
Waning Gibbous, 67% of the Moon is Illuminated
Apr 1
Waning Gibbous
Apr 3
Last Quarter
Apr 10
New
Apr 18
First Quarter
Apr 25
Full

Hourly Weather History & Observations

Time (EDT) Temp. Heat Index Dew Point Humidity Pressure Visibility Wind Dir Wind Speed Gust Speed Precip Events Conditions
12:53 AM 73.9 °F - 66.9 °F 79% 30.06 in 10.0 mi South 9.2 mph - N/A   Partly Cloudy
1:40 AM 73.4 °F - 68.0 °F 83% 30.04 in 10.0 mi SSE 8.1 mph - N/A   Mostly Cloudy
1:53 AM 73.9 °F - 68.0 °F 82% 30.03 in 10.0 mi SSE 9.2 mph - 0.00 in   Mostly Cloudy
2:18 AM 73.4 °F - 68.0 °F 83% 30.03 in 10.0 mi SSE 9.2 mph - N/A   Mostly Cloudy
2:36 AM 73.4 °F - 68.0 °F 83% 30.02 in 10.0 mi SSE 9.2 mph - N/A   Scattered Clouds
2:53 AM 73.9 °F - 68.0 °F 82% 30.01 in 10.0 mi South 9.2 mph - N/A   Scattered Clouds
3:53 AM 73.9 °F - 68.0 °F 82% 30.01 in 10.0 mi South 8.1 mph - N/A   Partly Cloudy
4:53 AM 73.9 °F - 68.0 °F 82% 30.00 in 10.0 mi South 8.1 mph - N/A   Partly Cloudy
5:53 AM 73.9 °F - 69.1 °F 85% 30.01 in 10.0 mi South 6.9 mph - N/A   Partly Cloudy
6:53 AM 73.4 °F - 69.8 °F 88% 30.01 in 10.0 mi South 5.8 mph - N/A   Partly Cloudy
7:53 AM 73.0 °F - 69.1 °F 87% 30.03 in 9.0 mi South 5.8 mph - N/A   Scattered Clouds
8:53 AM 75.9 °F - 70.0 °F 82% 30.06 in 10.0 mi SSW 6.9 mph - N/A   Scattered Clouds
9:53 AM 78.1 °F - 69.1 °F 74% 30.06 in 10.0 mi SSW 10.4 mph - N/A   Scattered Clouds
10:53 AM 81.0 °F 83.8 °F 68.0 °F 65% 30.06 in 10.0 mi South 11.5 mph - N/A   Scattered Clouds
11:53 AM 79.0 °F - 68.0 °F 69% 30.05 in 10.0 mi South 8.1 mph - N/A   Mostly Cloudy
12:02 PM 80.6 °F 83.9 °F 69.8 °F 70% 30.05 in 10.0 mi SSE 5.8 mph - N/A   Mostly Cloudy
12:53 PM 82.9 °F 85.4 °F 66.9 °F 58% 30.03 in 10.0 mi SSW 9.2 mph - N/A   Scattered Clouds
1:53 PM 86.0 °F 85.7 °F 60.1 °F 41% 30.01 in 10.0 mi West 8.1 mph - N/A   Scattered Clouds
2:53 PM 78.1 °F - 61.0 °F 56% 30.00 in 10.0 mi South 11.5 mph - 0.00 in   Mostly Cloudy
3:53 PM 73.9 °F - 69.1 °F 85% 29.99 in 10.0 mi SSW 12.7 mph - 0.03 in   Mostly Cloudy
4:53 PM 71.1 °F - 66.0 °F 84% 29.98 in 7.0 mi SSW 9.2 mph - 0.04 in Rain Light Rain
5:53 PM 75.9 °F - 66.9 °F 74% 29.97 in 10.0 mi South 9.2 mph - 0.00 in   Scattered Clouds
6:53 PM 75.0 °F - 63.0 °F 66% 29.98 in 10.0 mi SSW 8.1 mph - N/A   Scattered Clouds
7:53 PM 73.0 °F - 64.9 °F 76% 29.99 in 10.0 mi SSW 9.2 mph - 0.00 in   Scattered Clouds
8:53 PM 72.0 °F - 64.9 °F 78% 30.00 in 10.0 mi SSW 5.8 mph - 0.11 in   Mostly Cloudy
9:53 PM 71.1 °F - 64.9 °F 81% 30.02 in 10.0 mi SW 5.8 mph - N/A   Scattered Clouds
10:53 PM 72.0 °F - 64.9 °F 78% 30.03 in 10.0 mi WSW 5.8 mph - N/A   Clear
11:53 PM 73.0 °F - 64.0 °F 73% 30.03 in 10.0 mi West 5.8 mph - N/A   Clear